Regional Weather Roundup
Issued by NWS Charleston, WV

Home | Current Version | Previous Version | Graphics & Text | Print | Product List | Glossary On
Versions: 1 2 3 4 5 6 7 8 9 10 11 12 13 14 15 16 17 18 19 20 21 22 23 24 25 26 27
000
ASUS41 KRLX 200510
RWRRLX
West Virginia Regional Weather Roundup
National Weather Service Charleston WV
100 AM EDT WED SEP 20 2017

Note: "fair" indicates few or no clouds below 12,000 feet with no
significant weather and/or obstructions to visibility.

WVZ003-200600-
Northern Panhandle of West Virginia

CITY           SKY/WX    TMP DP  RH WIND       PRES   REMARKS
WHEELING       PTCLDY    67  64  90 E3        29.98F
$$

WVZ009-200600-
Northwest West Virginia

CITY           SKY/WX    TMP DP  RH WIND       PRES   REMARKS
PARKERSBURG    CLEAR     66  64  93 E3        30.00F
$$

WVZ006-200600-
Western West Virginia

CITY           SKY/WX    TMP DP  RH WIND       PRES   REMARKS
HUNTINGTON     MOCLDY    69  67  93 SE3       29.97F FOG
$$

WVZ015-200600-
West Central West Virginia

CITY           SKY/WX    TMP DP  RH WIND       PRES   REMARKS
CHARLESTON     MOCLDY    67  64  90 CALM      29.99S
$$

WVZ022-031-200600-
North Central West Virginia

CITY           SKY/WX    TMP DP  RH WIND       PRES   REMARKS
CLARKSBURG     PTCLDY    64  61  90 CALM      30.00S
MORGANTOWN     CLEAR     63  60  90 CALM      30.01S
$$

WVZ025-035-042-045-200600-
Southern West Virginia

CITY           SKY/WX    TMP DP  RH WIND       PRES   REMARKS
BECKLEY        CLOUDY    65  62  90 CALM      30.06F
LOGAN          MOCLDY    66  64  94 CALM      30.02S
BLUEFIELD      CLEAR     63  58  83 W5        30.09S
LEWISBURG      CLEAR     61  58  91 CALM      30.05F
$$

WVZ047-200600-
Northern Mountains of West Virginia

CITY           SKY/WX    TMP DP  RH WIND       PRES   REMARKS
ELKINS         FOG       57  55  93 CALM      30.06S VSB 3/4
$$

WVZ052-200600-
Eastern Panhandle of West Virginia

CITY           SKY/WX    TMP DP  RH WIND       PRES   REMARKS
MARTINSBURG    CLEAR     61  60  97 CALM      29.95S
PETERSBURG     CLEAR     63  62  99 CALM      30.00F FOG
$$




USA.gov is the U.S. government's official web portal to all federal, state and local government web resources and services.